Retour au catalogue

OPS 5721 DEB

ActifSSO
NORAD 9420·DEBRIS·🇺🇸 United States

Lancé Sep 11, 1976 depuis Vandenberg Space Force Base

Loading…

Prochains Passages (prochaines 24 heures)

TLE

PériméSource: Space-Track

Époque: Jun 10, 1977, 23:39 UTC

1 09420U 76091  C 77161.98577327  .00000180 +00000-0 +87146-4 0  9997
2 09420 098.7028 072.5618 0021526 119.9111 240.4776 14.18392194038642

Suivez OPS 5721 DEB en temps réel avec AllMySat

Download on the App Store